Temp
49 49 48 49 49 49 50 51 49 47 48 47 46 47 47 47 47 47 47 46 44 44 44 43 43 44 43 40 36 35 35 34 31 31 33 34 34 35 33 32 34 34 34
48 48 48 47 47 47 48 47 47 47 46 47 45 44 45 46 45 46 44 44 43 42 42 41 41 39 38 37 35 34 36 34 32 29 30 31 31 31 31 31 33 35 32
47 47 46 46 45 47 47 46 46 45 44 42 41 41 39 40 41 43 44 42 42 42 42 40 40 37 35 34 35 34 33 33 32 30 29 30 30 30 30 31 31 31 33
46 45 45 46 46 46 45 45 44 44 42 40 39 39 37 36 38 39 40 40 40 40 40 40 38 36 36 33 33 33 32 31 30 31 29 30 30 30 31 30 28 29 31
46 45 46 45 43 44 42 41 41 40 40 38 36 35 35 35 38 37 36 38 37 37 36 36 36 36 36 35 34 31 31 30 30 30 28 29 29 29 29 28 28 29 28
45 44 45 42 39 39 39 39 38 37 36 35 34 34 33 37 41 40 38 35 35 35 33 33 33 33 35 37 38 37 35 30 28 28 28 28 27 29 29 29 28 26 23
40 38 36 36 36 37 37 37 36 35 34 34 33 32 32 33 40 40 39 34 34 34 33 32 31 33 33 34 37 37 37 39 38 32 29 28 28 29 30 28 27 27 25
35 34 34 32 32 31 31 33 34 33 31 30 29 29 29 32 39 39 38 33 33 33 33 32 32 31 33 32 31 32 31 32 33 32 31 30 30 31 31 29 28 27 25
35 35 34 32 29 29 28 28 28 27 26 26 28 28 32 31 38 39 37 32 31 31 32 32 32 31 33 33 30 29 29 30 33 34 33 33 34 35 32 28 22 23 19
33 34 33 29 26 26 28 26 25 25 27 30 30 31 31 31 37 38 34 31 29 29 29 30 31 31 34 34 31 30 28 29 29 29 30 33 33 32 35 30 27 22 24
28 27 27 27 25 25 24 24 22 26 29 29 29 28 29 30 33 38 35 30 29 28 28 29 31 34 35 35 33 31 30 30 30 28 27 27 27 27 27 27 27 25 18
24 24 22 21 25 24 23 19 20 24 28 27 27 27 28 29 33 36 34 32 32 28 28 29 31 35 35 35 33 34 34 32 28 27 25 25 25 25 26 26 25 25 24
22 25 23 22 23 22 24 22 21 23 27 25 26 26 26 28 30 35 34 33 33 29 30 31 33 35 36 35 36 35 32 32 26 24 24 24 25 26 25 23 22 21 20
27 27 27 26 23 20 23 23 22 21 25 25 25 25 25 25 26 29 32 32 32 31 32 32 33 33 34 33 31 34 33 32 29 26 25 22 22 21 19 19 16 15 12
27 27 28 28 24 22 25 28 27 27 28 24 22 23 21 21 22 31 32 31 31 31 31 30 30 30 29 30 30 29 27 23 25 21 20 19 20 19 18 17 15 11 10
26 27 27 28 26 27 30 30 35 35 36 35 34 30 28 30 33 34 34 34 35 34 30 29 28 29 28 28 26 21 20 20 19 19 18 18 17 17 14 14 12 8 7
28 27 27 26 26 27 27 27 26 30 34 34 34 34 34 35 35 35 35 35 36 34 26 26 26 25 24 23 20 17 15 15 14 16 15 13 13 13 12 11 10 7 1
28 28 27 26 26 26 26 25 24 21 22 24 31 32 34 34 33 34 34 29 22 23 24 23 22 22 21 16 13 10 9 10 10 9 10 10 9 8 5 5 5 -2 -4
27 26 27 27 26 27 27 25 22 21 21 19 21 23 22 27 26 26 25 17 14 12 10 11 10 8 4 6 6 5 5 6 7 6 4 3 3 1 -3 -2 0 0 -4
23 24 24 24 23 23 23 22 20 21 19 15 14 13 11 12 8 7 7 5 4 -2 -6 -3 -5 -4 -4 -1 1 3 2 3 6 4 2 -1 -6 -5 -6 -10 -8 -8 -10
19 19 19 18 18 18 19 18 18 17 15 13 11 19 17 8 4 1 -1 -2 -2 -5 -5 -8 -8 -7 -8 -8 -8 -6 -4 -2 -8 -12 -13 -13 -15 -14 -14 -7 -12 -11 -10
16 15 15 15 15 15 14 14 13 12 11 10 8 13 15 5 2 -0 -6 -10 -13 -12 -14 -12 -13 -13 -14 -13 -14 -15 -15 -15 -18 -16 -14 -15 -14 -14 -13 -11 -11 -11 -11
14 14 13 12 11 10 10 10 9 8 6 5 5 4 1 -3 -5 -6 -8 -12 -13 -14 -17 -17 -16 -15 -19 -19 -18 -15 -14 -14 -11 -11 -10 -13 -14 -12 -13 -9 -11 -14 -15
12 11 10 8 9 8 7 5 5 4 3 1 -1 -4 -3 -8 -10 -9 -12 -14 -15 -19 -19 -18 -17 -17 -18 -19 -20 -20 -19 -16 -18 -10 -7 -9 -10 -10 -9 -10 -13 -13 -10
9 8 7 6 6 5 4 3 1 -0 -1 -1 -6 -5 -9 -10 -11 -13 -15 -16 -17 -17 -16 -17 -18 -17 -16 -15 -16 -17 -15 -2 -12 -10 -10 -9 -6 -7 -6 -7 -8 -9 -12
6 5 4 4 3 2 1 0 -1 -2 -5 -7 -8 -12 -11 -11 -13 -15 -16 -17 -16 -16 -18 -18 -18 -16 -14 -12 -12 -9 -6 -0 -1 -1 -8 -7 -7 -8 -9 -8 -8 -8 -14
MSLP
1014.38 1014.23 1014.37 1014.29 1014.29 1014.43 1014.59 1014.66 1014.95 1015.35 1015.63 1015.93 1016.33 1016.87 1017.12 1017.35 1017.62 1017.95 1018.16 1018.54 1018.84 1019.36 1019.60 1020.14 1020.33 1020.84 1021.19 1021.81 1022.45 1022.95 1023.99 1024.51 1025.94 1026.57 1026.69 1027.33 1027.17 1027.60 1028.12 1028.55 1029.09 1029.47 1029.76
1014.11 1014.11 1014.07 1013.98 1013.97 1014.02 1014.04 1014.09 1014.37 1014.58 1014.91 1015.22 1015.61 1016.14 1016.52 1016.69 1016.92 1017.19 1017.50 1017.75 1018.14 1018.55 1018.86 1019.43 1019.63 1020.28 1020.77 1021.27 1021.70 1022.47 1023.31 1024.18 1024.51 1026.19 1026.61 1027.18 1027.00 1027.44 1027.90 1028.36 1028.68 1029.13 1029.14
1013.51 1013.60 1013.58 1013.54 1013.63 1013.66 1013.63 1013.66 1013.90 1014.17 1014.50 1014.87 1015.35 1015.78 1016.14 1016.38 1016.64 1016.81 1016.95 1017.18 1017.42 1017.71 1018.09 1018.41 1018.82 1019.63 1020.27 1020.85 1021.41 1022.19 1022.84 1023.47 1024.25 1025.46 1026.05 1026.25 1026.60 1027.10 1027.85 1028.12 1028.33 1028.49 1028.55
1013.02 1013.10 1013.08 1012.82 1012.74 1012.72 1012.92 1013.13 1013.30 1013.60 1013.95 1014.45 1014.74 1015.04 1015.51 1015.95 1016.16 1016.34 1016.72 1016.92 1017.12 1017.22 1017.37 1017.76 1018.12 1018.59 1019.41 1020.33 1021.04 1021.83 1022.50 1023.51 1024.30 1024.89 1025.07 1025.74 1026.20 1027.03 1027.35 1027.78 1027.99 1028.03 1028.16
1012.63 1012.72 1012.47 1012.21 1012.28 1012.45 1012.65 1012.77 1012.93 1013.13 1013.30 1013.86 1014.45 1014.83 1015.12 1015.54 1015.81 1016.20 1016.34 1016.67 1016.94 1017.10 1017.38 1017.64 1018.00 1018.34 1019.00 1019.59 1020.45 1021.23 1022.03 1022.99 1023.71 1024.23 1024.68 1025.45 1026.04 1026.46 1026.86 1027.15 1027.51 1027.60 1027.61
1012.15 1012.02 1011.94 1012.10 1012.25 1012.34 1012.35 1012.50 1012.74 1013.16 1013.44 1013.74 1014.10 1014.47 1014.96 1014.98 1015.21 1015.56 1015.97 1016.34 1016.58 1016.98 1017.43 1017.85 1018.21 1018.50 1019.02 1019.42 1020.07 1020.47 1021.05 1022.32 1023.06 1023.62 1024.38 1024.84 1025.54 1025.92 1026.27 1026.63 1027.03 1027.34 1027.50
1012.33 1012.01 1011.85 1012.15 1012.32 1012.37 1012.23 1012.33 1012.54 1012.89 1013.30 1013.72 1014.24 1014.62 1014.77 1014.81 1014.89 1015.14 1015.68 1015.96 1016.28 1016.67 1017.08 1017.57 1018.22 1018.57 1019.03 1019.60 1019.98 1020.79 1021.41 1021.76 1021.82 1022.29 1023.64 1024.35 1025.01 1025.13 1025.54 1026.04 1026.35 1026.80 1026.76
1012.60 1012.36 1012.07 1011.95 1012.11 1012.42 1012.70 1012.73 1012.89 1012.94 1013.26 1013.72 1014.13 1014.40 1014.77 1014.86 1014.87 1015.03 1015.45 1015.81 1016.10 1016.35 1016.70 1017.09 1017.69 1018.28 1018.77 1019.54 1020.37 1021.17 1021.48 1021.96 1022.42 1022.65 1023.30 1023.90 1024.38 1024.61 1025.11 1025.44 1025.99 1026.22 1026.52
1012.96 1012.74 1012.55 1012.36 1012.14 1012.22 1012.55 1012.84 1013.16 1013.45 1013.65 1013.88 1013.99 1014.39 1014.62 1014.72 1014.64 1014.98 1015.46 1015.83 1016.15 1016.50 1016.90 1017.40 1017.87 1018.36 1018.91 1019.68 1020.57 1021.21 1021.75 1022.29 1022.48 1022.77 1023.08 1023.71 1024.05 1024.37 1025.08 1025.50 1026.08 1026.51 1026.56
1013.16 1012.91 1012.58 1012.44 1012.61 1012.74 1012.73 1013.02 1013.12 1013.24 1013.52 1013.70 1014.06 1014.36 1014.50 1014.75 1014.91 1015.09 1015.75 1015.99 1016.46 1016.89 1017.37 1017.78 1018.20 1018.53 1018.94 1019.67 1020.36 1020.96 1021.49 1021.98 1022.55 1022.84 1023.16 1023.39 1023.81 1024.00 1024.25 1024.69 1025.13 1025.85 1026.25
1013.48 1013.44 1013.27 1012.92 1012.71 1012.67 1013.12 1013.48 1013.61 1013.68 1013.92 1014.12 1014.35 1014.76 1014.80 1014.83 1014.91 1015.27 1016.00 1016.42 1016.84 1017.34 1017.67 1018.12 1018.35 1018.63 1019.04 1019.51 1020.09 1020.68 1021.08 1021.45 1022.06 1022.54 1022.94 1023.29 1023.69 1023.97 1024.31 1024.43 1024.78 1025.13 1025.60
1013.63 1013.71 1013.68 1013.81 1013.57 1013.23 1013.33 1013.90 1013.86 1014.12 1014.31 1014.75 1014.94 1014.95 1015.02 1015.10 1015.08 1015.31 1016.06 1016.54 1016.89 1017.36 1017.66 1017.88 1018.19 1018.43 1018.86 1019.38 1019.90 1020.53 1020.59 1021.15 1021.78 1022.25 1022.72 1023.00 1023.45 1023.49 1023.91 1024.08 1024.46 1024.89 1025.22
1013.34 1013.75 1014.16 1013.97 1014.02 1014.06 1013.96 1014.07 1014.18 1014.31 1014.62 1014.64 1015.13 1015.27 1015.45 1015.52 1015.40 1015.49 1016.05 1016.49 1016.89 1017.28 1017.66 1018.06 1018.50 1018.88 1019.32 1019.80 1019.94 1020.39 1020.75 1021.36 1021.78 1022.24 1022.34 1022.48 1022.74 1022.95 1023.42 1024.00 1024.55 1025.07 1025.42
1013.18 1013.71 1013.84 1014.52 1014.60 1014.45 1014.37 1014.22 1014.21 1014.56 1014.65 1014.73 1014.98 1015.22 1015.66 1015.69 1015.89 1016.06 1016.32 1016.64 1016.84 1017.37 1017.69 1017.88 1018.34 1018.90 1019.41 1019.91 1020.22 1020.45 1020.55 1020.77 1021.14 1021.51 1021.85 1022.12 1022.71 1023.04 1023.45 1023.72 1024.56 1025.31 1025.96
1013.44 1013.13 1013.57 1014.43 1014.66 1014.55 1014.48 1014.28 1014.52 1014.91 1014.82 1014.84 1014.99 1015.07 1015.63 1016.08 1016.05 1016.39 1016.62 1016.84 1017.00 1017.52 1017.82 1018.05 1018.29 1018.82 1019.28 1019.57 1019.98 1020.32 1020.57 1020.70 1021.16 1021.56 1021.93 1022.40 1022.91 1023.40 1023.92 1024.33 1024.71 1025.41 1026.09
1013.86 1013.36 1013.13 1014.26 1014.37 1014.51 1014.19 1014.04 1014.44 1014.60 1014.61 1014.93 1015.03 1015.15 1015.41 1015.57 1015.89 1016.34 1016.80 1017.05 1017.40 1017.63 1018.08 1018.59 1018.82 1019.33 1019.67 1020.01 1020.27 1020.47 1020.87 1020.96 1021.27 1021.74 1022.28 1022.69 1023.23 1023.62 1023.97 1024.80 1025.48 1025.80 1026.21
1014.08 1013.23 1013.56 1013.93 1014.32 1014.12 1014.86 1014.43 1014.85 1015.74 1015.38 1015.34 1015.41 1015.47 1015.70 1015.56 1015.89 1016.29 1016.64 1017.24 1017.59 1018.08 1018.72 1019.23 1019.41 1019.65 1019.97 1020.30 1020.64 1021.14 1021.47 1021.57 1021.81 1022.18 1022.71 1023.08 1023.71 1024.09 1024.53 1025.29 1026.04 1026.38 1026.66
1013.97 1013.81 1013.90 1013.95 1014.40 1014.74 1015.17 1015.83 1015.90 1015.84 1016.31 1016.42 1016.39 1016.33 1016.20 1016.38 1016.49 1016.69 1017.06 1017.75 1018.50 1019.00 1019.70 1020.21 1020.37 1020.69 1020.80 1021.04 1021.66 1022.22 1022.44 1022.51 1022.68 1022.93 1023.41 1023.69 1024.10 1024.59 1025.18 1025.77 1026.15 1026.40 1026.90
1014.21 1013.76 1013.92 1014.61 1014.91 1014.71 1015.36 1016.15 1016.48 1016.70 1016.92 1017.61 1017.77 1017.69 1017.84 1017.78 1018.00 1018.15 1018.12 1019.33 1020.52 1021.17 1021.46 1021.92 1021.89 1021.99 1022.30 1022.43 1022.79 1022.92 1023.00 1023.24 1023.24 1023.63 1023.87 1024.13 1024.64 1025.28 1025.79 1026.14 1026.45 1026.80 1027.15
1014.52 1014.77 1014.52 1015.05 1015.54 1015.52 1015.82 1016.39 1017.26 1017.78 1018.29 1018.99 1019.37 1019.42 1019.56 1019.44 1020.07 1020.52 1020.94 1021.18 1021.60 1022.54 1022.69 1022.88 1022.84 1022.81 1023.17 1023.27 1023.52 1023.72 1023.75 1023.89 1024.05 1024.28 1024.53 1024.87 1025.26 1025.52 1026.12 1026.53 1026.64 1026.92 1027.21
1014.30 1015.06 1015.63 1016.13 1016.40 1016.27 1016.55 1017.31 1017.80 1018.44 1019.37 1019.95 1020.10 1019.94 1020.62 1020.91 1021.66 1022.16 1022.50 1022.69 1022.64 1022.80 1022.92 1023.19 1023.36 1023.54 1023.72 1023.91 1024.13 1024.16 1024.21 1024.28 1024.36 1024.56 1024.85 1025.18 1025.61 1026.25 1026.05 1026.21 1026.57 1026.87 1027.27
1014.98 1015.76 1016.71 1016.99 1017.14 1017.18 1017.65 1018.20 1018.65 1019.57 1020.62 1021.05 1021.23 1021.20 1021.38 1021.86 1022.42 1023.05 1023.39 1023.36 1023.66 1023.91 1024.10 1023.92 1024.18 1024.40 1024.38 1024.62 1024.84 1024.64 1024.59 1024.65 1024.75 1024.99 1025.32 1025.45 1025.74 1025.94 1026.16 1026.35 1026.55 1026.79 1027.12
1016.08 1016.93 1017.82 1018.16 1018.23 1018.49 1018.75 1019.37 1019.80 1020.34 1021.06 1021.73 1022.19 1022.48 1022.76 1023.04 1023.08 1023.50 1023.76 1024.09 1024.36 1024.24 1024.29 1024.26 1024.45 1024.73 1024.55 1024.53 1024.64 1024.77 1024.82 1024.70 1024.78 1024.99 1025.28 1025.34 1025.61 1025.77 1025.98 1026.21 1026.50 1026.99 1027.09
1017.16 1017.65 1018.49 1018.85 1019.26 1019.61 1019.87 1020.29 1020.75 1021.39 1022.04 1022.49 1022.82 1023.06 1023.20 1023.43 1023.69 1023.95 1024.12 1024.27 1024.16 1024.41 1024.45 1024.50 1024.60 1024.64 1024.58 1024.48 1024.50 1024.50 1024.42 1024.46 1024.52 1024.55 1024.74 1025.11 1025.31 1025.51 1025.71 1025.97 1026.16 1026.44 1026.58
1018.31 1018.91 1019.03 1019.36 1019.79 1020.43 1020.90 1021.27 1021.48 1021.94 1022.52 1022.81 1023.57 1023.63 1023.66 1023.91 1024.13 1024.25 1024.42 1024.24 1024.24 1024.39 1024.31 1024.28 1024.36 1024.33 1024.27 1024.17 1024.17 1024.03 1023.95 1023.92 1024.01 1024.21 1024.52 1024.67 1024.83 1025.06 1025.31 1025.52 1025.70 1025.87 1026.08
1019.66 1019.91 1019.91 1020.22 1020.66 1020.93 1021.32 1021.80 1022.36 1022.92 1023.35 1023.59 1023.68 1023.83 1024.01 1024.21 1024.38 1024.37 1024.28 1024.44 1024.66 1024.39 1024.30 1024.22 1024.14 1023.92 1023.79 1023.78 1023.63 1023.43 1023.38 1023.35 1023.50 1023.67 1024.02 1024.31 1024.51 1024.64 1024.83 1024.96 1025.13 1025.34 1025.55
Wind_Speed
8 7 8 8 9 8 10 10 8 7 10 11 12 14 13 13 11 12 12 12 14 13 11 13 15 13 10 8 4 4 3 4 3 3 2 2 6 8 6 5 6 4 5
7 7 9 8 7 8 9 8 7 9 8 10 11 11 12 12 12 14 13 12 14 13 13 12 13 8 10 8 7 7 8 5 5 5 3 3 3 4 5 5 4 5 5
8 8 8 9 8 10 9 7 7 7 7 7 8 10 9 10 10 12 12 11 12 13 13 13 12 12 10 7 7 8 5 3 4 4 5 3 2 3 3 3 4 5 4
7 8 9 11 10 9 7 7 7 7 7 7 7 8 8 7 9 8 9 9 10 10 10 12 11 13 12 10 9 9 6 6 4 6 3 4 3 2 2 3 4 3 4
7 8 11 8 7 7 7 7 7 7 7 7 7 6 6 7 7 9 8 9 9 8 6 7 9 10 15 15 10 10 11 7 6 6 4 3 3 3 6 3 4 2 3
7 9 8 6 6 7 7 7 6 6 6 6 7 7 7 6 11 14 9 7 7 8 7 5 5 9 15 21 20 21 15 12 7 4 2 3 4 6 4 4 3 2 2
7 7 5 5 6 7 6 6 6 6 5 6 6 5 6 6 11 13 13 5 7 7 8 9 8 7 11 11 15 17 20 16 10 7 6 5 7 7 5 4 4 4 4
7 6 5 4 4 3 3 4 3 3 5 4 4 4 3 4 10 12 12 5 5 6 9 10 11 11 11 10 10 9 6 5 6 4 6 5 4 5 4 3 5 3 2
7 6 5 4 3 3 4 3 2 3 3 3 3 4 5 4 12 12 11 5 5 6 6 7 8 10 16 18 11 10 7 4 5 9 8 9 10 8 5 3 2 3 3
6 7 5 3 3 3 3 3 2 3 3 3 3 2 3 3 10 12 9 4 5 5 5 5 9 9 20 20 10 9 8 6 5 2 3 7 9 6 13 8 4 4 4
3 3 4 2 2 4 3 2 2 4 4 4 4 3 3 2 4 11 10 4 4 4 4 5 4 15 20 20 14 8 7 6 8 5 4 3 3 3 3 3 3 4 3
3 4 3 3 3 2 6 3 4 5 5 4 4 3 2 2 4 12 13 9 10 5 6 5 6 16 17 17 12 14 10 7 4 5 4 4 4 5 5 5 4 3 3
5 5 3 4 3 2 5 5 4 4 4 4 3 3 2 2 2 10 14 9 11 5 4 8 13 15 12 11 11 9 6 4 4 4 5 5 5 4 5 5 5 5 4
7 5 5 3 2 2 1 3 3 2 3 4 4 4 2 2 2 3 3 4 8 5 9 7 10 11 10 6 4 8 5 5 6 6 5 2 4 4 4 3 3 3 2
5 6 5 2 1 2 3 3 3 1 2 2 2 4 4 2 2 6 5 4 4 5 5 4 4 5 6 6 5 5 3 2 3 2 2 3 3 3 2 2 2 2 3
5 5 6 4 1 1 5 7 11 9 10 9 9 6 2 6 9 9 9 9 11 12 3 3 4 4 4 5 4 2 1 3 2 3 2 3 3 4 4 2 2 2 3
5 5 4 5 2 5 4 6 8 10 16 14 12 10 8 8 10 8 8 7 7 7 2 1 1 1 1 1 2 1 2 2 2 3 3 3 3 3 4 2 2 2 1
3 5 4 4 3 2 4 3 3 5 6 4 14 9 14 14 13 11 10 10 5 6 3 2 2 2 2 1 1 1 1 2 2 2 2 3 3 2 2 2 3 3 2
3 4 6 4 2 6 5 5 5 5 6 5 4 9 10 17 18 19 19 5 3 4 3 4 4 3 3 3 2 2 2 2 2 2 2 2 3 2 1 2 2 3 3
5 6 7 5 3 5 5 6 5 5 6 5 4 3 3 6 5 5 5 3 4 3 2 3 2 3 2 2 2 1 2 2 1 1 2 2 2 2 3 3 3 3 3
6 7 7 5 4 5 6 6 5 7 6 4 2 5 9 5 3 2 2 2 3 2 3 3 2 2 1 1 2 2 1 1 1 2 2 3 3 2 2 2 3 2 2
6 7 5 5 5 6 6 6 6 6 5 5 4 6 10 4 3 2 2 3 2 2 1 2 2 1 1 2 2 2 2 2 2 2 2 2 3 2 3 2 2 2 3
7 7 6 5 6 7 7 6 6 6 5 4 3 4 3 3 3 2 2 1 1 1 1 3 2 1 1 0 1 3 3 4 4 4 4 3 3 3 3 3 3 2 2
7 8 7 5 5 6 6 6 6 6 5 4 3 2 2 2 2 2 1 1 1 0 0 0 1 2 2 3 2 3 2 2 2 3 5 4 4 3 3 2 3 3 3
6 6 6 6 6 6 6 5 5 4 4 3 2 1 1 1 1 1 1 1 0 0 2 2 2 4 5 6 6 5 4 6 4 4 2 3 5 5 4 3 3 3 3
6 6 6 5 5 5 5 5 4 3 3 2 1 0 1 1 2 2 1 1 2 3 4 3 4 6 6 6 7 8 7 8 7 7 4 3 4 4 4 5 6 4 3
Wind_Direction
228 225 227 228 223 218 221 221 211 196 195 195 193 201 205 206 205 204 204 200 202 204 201 206 208 210 209 198 160 127 117 104 151 187 115 230 169 171 172 165 185 198 231
235 229 233 236 229 228 230 225 201 211 202 198 191 198 205 205 201 206 204 201 202 203 202 199 210 193 197 184 165 166 176 175 113 158 153 178 161 172 158 171 187 216 214
223 224 235 236 223 236 242 225 212 210 206 191 185 198 198 199 200 212 211 205 205 207 203 202 197 184 187 178 173 169 150 121 129 153 171 160 130 138 149 184 193 216 225
226 226 233 235 224 226 226 222 213 204 200 199 195 195 194 194 204 203 208 209 211 210 203 202 190 186 181 167 167 168 149 140 148 167 117 137 118 132 134 187 227 207 240
236 233 239 237 223 222 228 225 221 210 200 192 192 195 190 191 206 206 202 208 211 206 197 192 188 178 176 177 169 166 152 159 167 159 135 132 149 145 196 181 211 202 239
242 239 244 238 229 228 228 223 218 223 204 185 193 192 198 208 214 208 194 197 198 190 182 162 155 158 175 180 185 170 161 171 163 141 128 139 174 191 164 183 179 170 267
289 272 258 248 237 237 230 214 213 204 174 197 204 195 212 211 205 204 199 186 184 186 171 162 164 175 169 177 172 180 185 186 182 137 144 179 179 187 159 178 185 192 210
298 301 288 257 239 249 221 216 204 172 175 170 179 184 180 210 199 203 189 180 179 178 177 173 172 168 170 158 170 168 137 130 139 143 174 152 161 173 156 161 210 190 317
294 289 271 259 236 194 191 189 157 132 136 163 169 171 192 192 193 200 183 162 156 153 156 163 162 155 160 167 155 152 149 179 192 184 163 184 195 199 197 159 190 182 243
302 294 283 234 222 226 190 161 154 134 154 132 122 149 157 165 195 195 161 128 125 123 106 114 148 164 170 169 162 160 172 192 179 166 208 226 220 221 228 205 177 202 238
306 343 353 346 169 162 126 51 96 82 95 97 101 71 90 145 177 190 147 90 119 128 141 151 163 173 173 173 167 170 187 154 200 186 191 180 193 211 229 235 189 182 171
73 46 35 14 3 64 107 80 88 104 108 97 99 86 68 109 149 164 143 151 162 155 158 153 162 174 177 176 165 191 176 159 163 176 185 199 201 198 210 202 155 125 105
114 95 36 44 45 34 113 112 100 102 126 118 128 123 99 70 95 164 156 171 168 154 155 167 172 185 180 191 191 195 194 200 173 184 211 210 204 195 142 115 102 105 96
128 117 101 91 98 71 77 93 104 106 124 132 135 127 108 73 69 65 142 156 161 151 173 173 180 190 203 216 226 236 222 208 200 208 208 159 129 139 144 129 127 125 112
143 132 123 131 134 111 97 99 80 150 149 128 152 131 135 145 191 164 163 149 151 161 154 158 164 175 192 210 218 222 201 139 190 126 120 140 138 136 119 119 103 110 167
179 162 133 150 154 145 127 110 86 100 128 135 138 133 188 159 160 168 167 172 178 181 141 170 180 197 208 226 223 186 146 154 134 126 112 124 142 151 128 106 110 149 171
219 141 126 133 147 126 120 116 110 74 82 83 88 95 97 114 138 152 167 181 191 158 76 112 110 141 205 185 145 147 152 76 83 98 117 118 111 113 128 153 173 169 160
145 122 127 120 121 105 92 91 110 117 101 70 60 83 85 82 80 79 98 78 48 38 59 76 84 59 45 73 88 89 72 91 82 99 107 126 126 122 130 171 179 158 147
139 130 118 93 122 118 124 122 102 88 85 69 48 43 35 64 63 59 62 68 83 53 37 38 25 37 41 60 51 62 105 145 111 133 134 116 115 126 152 153 151 164 140
103 90 86 105 101 88 95 96 90 90 85 69 60 25 2 39 45 40 41 68 88 85 96 88 65 80 89 106 106 108 90 80 152 139 127 140 152 152 159 165 167 158 191
106 84 84 81 84 87 88 94 91 95 98 94 39 89 89 99 99 86 78 57 94 107 106 121 107 98 89 106 125 129 124 178 173 158 160 175 156 164 173 174 168 186 167
84 90 85 101 101 95 95 92 93 94 93 90 53 61 92 75 77 79 67 60 54 80 64 111 104 126 182 178 170 145 165 208 230 193 194 177 176 167 163 161 183 173 175
96 99 97 89 86 91 84 84 93 101 102 91 91 92 79 87 88 87 109 156 97 63 28 72 92 339 324 284 187 179 179 216 214 179 183 178 187 185 178 188 183 200 193
105 103 112 102 100 97 98 96 90 90 105 108 101 84 93 106 130 149 171 177 139 41 347 128 199 231 267 272 255 229 216 228 188 205 194 176 194 192 188 188 193 210 205
88 105 102 101 99 104 111 105 97 92 95 100 125 132 77 58 41 315 273 252 2 347 279 259 240 240 241 254 259 261 252 263 205 196 179 172 201 204 200 203 203 209 203
92 96 98 100 99 91 92 99 104 119 137 139 118 108 195 229 251 254 291 346 291 277 280 267 261 261 262 256 255 251 243 244 239 216 185 187 202 206 199 218 218 218 196